Location: La Pernelle
(49.6188°N, 1.2999°W)
Time: 08:52:25
(UTC+00:00)

Cosmos 2221 Rocket - Visible Passes

Search period start: 19 October 2021 00:00
Search period end: 29 October 2021 00:00
Orbit: 619 x 649 km, 82.5° (Epoch: 18 October)

Date Brightness Start Highest point End Pass type
(mag) Time Alt. Az. Time Alt. Az. Time Alt. Az.
19 Oct 6.0 03:12:43 17° ESE 03:14:24 21° E 03:17:41 10° NE visible
19 Oct 3.8 04:50:16 27° SW 04:52:16 46° WNW 04:56:33 10° N visible
20 Oct 4.8 03:35:48 37° ESE 03:36:15 38° E 03:40:21 10° NNE visible
20 Oct 4.6 05:13:20 22° W 05:14:34 25° WNW 05:18:15 10° NNW visible
21 Oct 3.8 03:58:41 67° NE 03:58:41 67° NE 04:02:39 10° NNE visible
21 Oct 5.2 05:36:12 14° WNW 05:37:00 14° WNW 05:39:26 10° NNW visible
22 Oct 6.4 02:43:54 15° ENE 02:43:54 15° ENE 02:45:28 10° NE visible
22 Oct 4.1 04:21:25 43° NNW 04:21:25 43° NNW 04:24:42 10° N visible
23 Oct 5.9 03:06:31 21° NE 03:06:31 21° NE 03:08:19 10° NNE visible
23 Oct 4.9 04:44:02 24° NW 04:44:02 24° NW 04:46:29 10° N visible
24 Oct 5.6 03:29:03 22° NNE 03:29:03 22° NNE 03:30:43 10° NNE visible
24 Oct 5.5 05:06:32 15° NW 05:06:32 15° NW 05:07:54 10° NNW visible
25 Oct 5.6 03:51:30 19° N 03:51:30 19° N 03:52:50 10° N visible
26 Oct 5.8 04:13:54 15° N 04:13:54 15° N 04:14:42 10° N visible
27 Oct 6.0 04:36:15 10° NNW 04:36:15 10° NNW 04:36:16 10° NNW visible
